FW4036 Weather Reports


time (UTC)temp
C
wind
direction
speed
KPH
gust
KPH
rain 1hr
cm
rain 24hr
cm
rain mn
cm
humidity
%
barometer
mb
20260504110552 9 223 0.0 0.0 0.00 0.00 0.00 66 1012.3
20260504100545 7 230 0.0 0.0 0.00 0.00 0.00 71 1012.1
20260504081538 8 120 0.0 0.0 0.00 0.00 0.00 64 1012.4
20260504081038 8 120 0.0 0.0 0.00 0.00 0.00 63 1012.4
20260504080537 8 120 0.0 0.0 0.00 0.00 0.00 64 1012.5
20260504050516 8 207 0.0 0.0 0.00 0.00 0.00 55 1013.3
20260504050016 7 186 0.0 0.0 0.00 0.00 0.00 57 1013.4
20260504045514 7 186 0.0 0.0 0.00 0.00 0.00 58 1013.4
20260504045020 7 186 0.0 0.0 0.00 0.00 0.00 58 1013.4
20260504044532 7 186 0.0 0.0 0.00 0.00 0.00 58 1013.4
20260504044014 7 186 0.0 0.0 0.00 0.00 0.00 58 1013.5
20260504043513 7 186 0.0 0.0 0.00 0.00 0.00 59 1013.3
20260504043018 7 186 0.0 0.0 0.00 0.00 0.00 58 1013.3
20260504042512 7 186 0.0 0.0 0.00 0.00 0.00 57 1013.2
20260504042012 7 164 0.0 0.0 0.00 0.00 0.00 56 1013.2
20260504041511 7 164 0.0 0.0 0.00 0.00 0.00 57 1013.2
20260504041010 7 164 0.0 0.0 0.00 0.00 0.00 57 1013.2
20260504040510 8 164 0.0 0.0 0.00 0.00 0.00 57 1013.2
20260504040007 8 164 0.0 0.0 0.00 0.00 0.00 54 1013.2
20260504035516 9 164 0.0 0.0 0.00 0.00 0.00 53 1013.2
20260504035008 9 164 0.0 0.0 0.00 0.00 0.00 51 1013.2
20260504034507 9 142 0.0 0.0 0.00 0.00 0.00 51 1013.2
20260504034006 9 142 0.0 0.0 0.00 0.00 0.00 52 1013.2
20260504033510 10 142 0.0 0.0 0.00 0.00 0.00 51 1013.2
20260504033009 9 142 0.0 0.0 0.00 0.00 0.00 50 1013.1
20260504032505 9 141 0.0 0.0 0.00 0.00 0.00 50 1013.1
20260504032006 8 134 0.0 0.0 0.00 0.00 0.00 51 1013.0
20260504031505 8 132 0.0 0.0 0.00 0.00 0.00 52 1013.0
20260504031005 8 132 0.0 0.0 0.00 0.00 0.00 54 1013.0
20260504030505 7 84 0.0 0.0 0.00 0.00 0.00 55 1013.0
20260504030004 8 84 0.0 0.0 0.00 0.00 0.00 55 1012.9
20260504025505 7 84 0.0 0.0 0.00 0.00 0.00 56 1012.8
20260504025004 7 84 0.0 0.0 0.00 0.00 0.00 55 1012.8
20260504024509 7 84 0.0 0.0 0.00 0.00 0.00 55 1012.8
20260504024007 7 84 0.0 0.0 0.00 0.00 0.00 55 1012.8
20260504023507 7 84 0.0 0.0 0.00 0.00 0.00 54 1012.8
20260504023004 8 84 0.0 0.0 0.00 0.00 0.00 54 1012.7
20260504022504 8 84 0.0 0.0 0.00 0.00 0.00 55 1012.7
20260504022004 8 84 0.0 0.0 0.00 0.00 0.00 55 1012.7
20260504021504 8 84 0.0 0.0 0.00 0.00 0.00 56 1012.7
20260504021004 7 84 0.0 0.0 0.00 0.00 0.00 57 1012.6
20260504020502 7 84 0.0 0.0 0.00 0.00 0.00 57 1012.6
20260504020005 8 84 0.0 0.0 0.00 0.00 0.00 53 1012.5
20260504015503 8 84 0.0 0.0 0.00 0.00 0.00 57 1012.4
20260504015003 8 84 0.0 0.0 0.00 0.00 0.00 57 1012.4
20260504014502 8 84 0.0 0.0 0.00 0.00 0.00 55 1012.4
20260504014003 9 84 0.0 0.0 0.00 0.00 0.00 53 1012.3
20260504013502 9 84 0.0 0.0 0.00 0.00 0.00 51 1012.3
20260504013002 9 84 0.0 0.0 0.00 0.00 0.00 51 1012.3
20260504012502 9 84 0.0 0.0 0.00 0.00 0.00 52 1012.3
20260504012002 9 84 0.0 0.0 0.00 0.00 0.00 51 1012.3
20260504011502 10 84 0.0 0.0 0.00 0.00 0.00 51 1012.2
20260504011001 9 84 0.0 0.0 0.00 0.00 0.00 51 1012.2
20260504010501 9 84 0.0 0.0 0.00 0.00 0.00 54 1012.2
20260504010112 9 84 0.0 0.0 0.00 0.00 0.00 54 1012.2
20260504005601 9 84 0.0 0.0 0.00 0.00 0.00 57 1012.2
20260504005102 10 84 0.0 0.0 0.00 0.00 0.00 55 1012.2
20260504004603 10 84 0.0 0.0 0.00 0.00 0.00 51 1012.1
20260504004059 10 84 0.0 0.0 0.00 0.00 0.00 50 1012.0
20260504003602 10 84 0.0 0.0 0.00 0.00 0.00 50 1012.0
20260504003100 10 84 0.0 0.0 0.00 0.00 0.00 48 1012.0
20260504002559 11 84 0.0 0.0 0.00 0.00 0.00 47 1011.9
20260504002059 12 84 0.0 0.0 0.00 0.00 0.00 45 1011.9
20260504001614 12 84 0.0 0.0 0.00 0.00 0.00 43 1012.0
20260504001059 12 84 0.0 0.0 0.00 0.00 0.00 41 1012.0
20260504000558 13 84 0.0 1.6 0.00 0.00 0.00 41 1012.0
20260504000058 13 75 0.0 1.6 0.00 0.00 0.00 40 1011.9
20260503235557 13 206 0.0 1.6 0.00 0.00 0.00 40 1011.8
20260503235057 13 222 0.0 1.6 0.00 0.00 0.00 40 1011.8
20260503234557 13 222 0.0 3.2 0.00 0.00 0.00 39 1011.7
20260503234057 13 227 0.0 3.2 0.00 0.00 0.00 38 1011.7
20260503233557 14 250 0.0 3.2 0.00 0.00 0.00 37 1011.7
20260503233057 14 239 0.0 0.0 0.00 0.00 0.00 40 1011.7
20260503232600 14 229 0.0 1.6 0.00 0.00 0.00 39 1011.7
20260503232056 15 229 0.0 1.6 0.00 0.00 0.00 36 1011.6
20260503231557 15 261 0.0 1.6 0.00 0.00 0.00 38 1011.6
20260503231057 15 241 0.0 1.6 0.00 0.00 0.00 37 1011.5
20260503230557 15 235 0.0 3.2 0.00 0.00 0.00 36 1011.5
20260503230059 15 246 0.0 6.4 0.00 0.00 0.00 34 1011.5
20260503225555 15 275 0.0 6.4 0.00 0.00 0.00 36 1011.4
20260503225055 15 243 0.0 8.0 0.00 0.00 0.00 35 1011.4
20260503224555 15 240 0.0 4.8 0.00 0.00 0.00 37 1011.4
20260503224055 15 302 0.0 4.8 0.00 0.00 0.00 35 1011.4
20260503223554 15 265 0.0 4.8 0.00 0.00 0.00 35 1011.4
20260503223054 15 285 0.0 4.8 0.00 0.00 0.00 35 1011.4
20260503222556 15 215 0.0 4.8 0.00 0.00 0.00 36 1011.4
20260503222053 16 304 0.0 9.7 0.00 0.00 0.00 33 1011.5
20260503221553 16 204 0.0 11.3 0.00 0.00 0.00 34 1011.5
20260503221057 16 262 1.6 9.7 0.00 0.00 0.00 35 1011.5
20260503220553 16 296 0.0 6.4 0.00 0.00 0.00 35 1011.6
20260503220108 16 249 0.0 6.4 0.00 0.00 0.00 36 1011.5
20260503215553 16 229 0.0 11.3 0.00 0.00 0.00 36 1011.5
20260503215051 16 265 0.0 11.3 0.00 0.00 0.00 35 1011.5
20260503214651 16 313 0.0 1.6 0.00 0.00 0.00 36 1011.6
20260503214051 16 236 0.0 1.6 0.00 0.00 0.00 36 1011.6
20260503213553 16 279 0.0 1.6 0.00 0.00 0.00 36 1011.5
20260503213051 16 261 0.0 8.0 0.00 0.00 0.00 34 1011.6
20260503212551 16 213 0.0 8.0 0.00 0.00 0.00 34 1011.7
20260503212050 16 298 0.0 1.6 0.00 0.00 0.00 38 1011.6
20260503211604 16 288 0.0 1.6 0.00 0.00 0.00 33 1011.6
20260503211054 16 242 0.0 16.1 0.00 0.00 0.00 33 1011.7
20260503210549 16 306 0.0 6.4 0.00 0.00 0.00 36 1011.6
20260503210055 16 258 0.0 8.0 0.00 0.00 0.00 34 1011.6
20260503205549 16 292 0.0 8.0 0.00 0.00 0.00 40 1011.7
20260503205052 16 244 0.0 8.0 0.00 0.00 0.00 36 1011.6
20260503204554 16 203 0.0 11.3 0.00 0.00 0.00 39 1011.6
20260503204048 16 261 1.6 14.5 0.00 0.00 0.00 35 1011.7
20260503203548 16 275 0.0 14.5 0.00 0.00 0.00 36 1011.8
20260503203047 16 240 0.0 6.4 0.00 0.00 0.00 38 1011.8
20260503202547 16 243 0.0 8.0 0.00 0.00 0.00 36 1011.9
20260503202047 16 298 1.6 8.0 0.00 0.00 0.00 36 1011.8
20260503201546 16 259 0.0 12.9 0.00 0.00 0.00 35 1011.9
20260503201048 16 253 1.6 12.9 0.00 0.00 0.00 36 1011.9
20260503200549 16 256 0.0 17.7 0.00 0.00 0.00 39 1011.9
20260503200044 15 309 1.6 17.7 0.00 0.00 0.00 33 1012.1
20260503195544 16 288 0.0 12.9 0.00 0.00 0.00 38 1012.3
20260503195044 16 240 0.0 19.3 0.00 0.00 0.00 37 1012.4
20260503194547 15 296 3.2 19.3 0.00 0.00 0.00 39 1012.5
20260503194044 16 294 0.0 16.1 0.00 0.00 0.00 39 1012.5
20260503193544 15 254 0.0 14.5 0.00 0.00 0.00 41 1012.6
20260503193049 15 221 1.6 12.9 0.00 0.00 0.00 39 1012.7
20260503192542 15 292 1.6 9.7 0.00 0.00 0.00 36 1012.8
20260503192043 15 304 0.0 4.8 0.00 0.00 0.00 35 1012.8
20260503191541 15 215 0.0 4.8 0.00 0.00 0.00 39 1012.9
20260503191041 15 206 0.0 16.1 0.00 0.00 0.00 41 1013.0
20260503190541 15 282 1.6 16.1 0.00 0.00 0.00 37 1013.1
20260503190044 15 269 0.0 9.7 0.00 0.00 0.00 39 1013.2
20260503185540 15 305 0.0 6.4 0.00 0.00 0.00 43 1013.1
20260503185039 14 224 0.0 6.4 0.00 0.00 0.00 39 1013.2
20260503184539 14 292 0.0 8.0 0.00 0.00 0.00 43 1013.2
20260503184039 14 225 0.0 8.0 0.00 0.00 0.00 39 1013.4
20260503183538 14 298 0.0 16.1 0.00 0.00 0.00 44 1013.4
20260503183041 14 288 1.6 16.1 0.00 0.00 0.00 40 1013.4
20260503182539 15 252 0.0 16.1 0.00 0.00 0.00 45 1013.4
20260503182041 14 250 0.0 19.3 0.00 0.00 0.00 41 1013.5
20260503181612 14 280 1.6 16.1 0.00 0.00 0.00 38 1013.4
20260503181037 14 275 0.0 6.4 0.00 0.00 0.00 40 1013.4
20260503180536 13 237 0.0 16.1 0.00 0.00 0.00 45 1013.7
20260503180040 13 263 0.0 16.1 0.00 0.00 0.00 45 1013.6
20260503175534 13 228 0.0 17.7 0.00 0.00 0.00 41 1013.6
20260503175033 13 209 3.2 17.7 0.00 0.00 0.00 43 1013.7
20260503174532 12 279 0.0 8.0 0.00 0.00 0.00 47 1013.7
20260503174032 12 304 0.0 8.0 0.00 0.00 0.00 51 1013.8
20260503173532 12 318 0.0 9.7 0.00 0.00 0.00 46 1013.9
20260503173045 12 15 0.0 6.4 0.00 0.00 0.00 47 1013.8
20260503172532 12 9 0.0 4.8 0.00 0.00 0.00 45 1013.9
20260503172031 12 25 0.0 6.4 0.00 0.00 0.00 45 1013.9
20260503171531 13 267 0.0 16.1 0.00 0.00 0.00 47 1014.0
20260503171030 12 252 0.0 16.1 0.00 0.00 0.00 46 1014.1
20260503170529 12 239 1.6 11.3 0.00 0.00 0.00 50 1014.0
20260503150520 9 33 0.0 11.3 0.00 0.00 0.00 51 1014.9
20260503131007 7 300 0.0 16.1 0.00 0.00 0.00 60 1015.2
20260503130508 7 322 1.6 16.1 0.00 0.00 0.00 60 1015.3
20260503120108 6 244 0.0 12.9 0.00 0.00 0.00 64 1015.0